(146071) = 2000 GQ90

Discovered at Socorro on 2000-04-04 by LINEAR.

Orbit

Orbit type: Main Belt

Note: WebGL enabled browser required.

epoch2023-09-13.0
epoch JD2460200.5
perihelion date2022-10-25.71765
perihelion JD2459878.21765
argument of perihelion (°)217.86436
ascending node (°)45.44788
inclination (°)13.93312
eccentricity0.1135606
perihelion distance (AU)2.3766048
Tisserand w.r.t. Jupiter3.3
ΔV w.r.t. Earth (km/sec)10.6
semimajor axis (AU)2.6810686
mean anomaly (°)72.35665
mean daily motion (°/day)0.22451320
aphelion distance (AU)2.986
period (years)4.39
P-vector [x]-0.12932784
P-vector [y]-0.84082543
P-vector [z]-0.52563000
Q-vector [x]0.97664293
Q-vector [y]-0.01628208
Q-vector [z]-0.21425096
absolute magnitude15.68
phase slope0.15
uncertainty0
referenceMPEC 2024-A34
observations used671
oppositions15
arc length (days)8620
first opposition used2000
last opposition used2023
residual rms (arc-secs)0.70
perturbers coarse indicatorM-v
perturbers precise indicator003Ek
first observation date used2000-04-04.0
last observation date used2023-11-10.0
computer nameMPCLINUX
JD of orbit computation2456909.271621
perihelion JD uncertainty (days)1.6700E-04
argument of perihelion uncertainty (°)4.5922E-05
ascending node uncertainty (°)2.4771E-05
inclination uncertainty (°)8.8159E-06
eccentricity uncertainty 5.4796E-08
perihelion distance uncertainty (AU)1.4425E-07
Minimum Orbit Intersection Distances (in AU)
for orbit epoch: 2460200.5, reference: E2024-A34
Mercury1.91191
Venus1.66003
Earth1.37628
Mars0.86429
Jupiter2.07415
Saturn6.13048
Uranus15.7706
Neptune26.9427

Observations

686 total observations over interval: 2000 04 04.38328 – 2023 11 10.203126
These data are available for download (format description).

Date (UT) J2000 RA J2000 Dec Magn Location Ref
2000 04 04.38328 14 04 39.02 -03 35 54.2 18.5   704 – Lincoln Laboratory ETS, New Mexico MPS 12816
2000 04 04.39782 14 04 38.19 -03 35 54.7 18.5   704 – Lincoln Laboratory ETS, New Mexico MPS 12816
2000 04 04.41230 14 04 37.42 -03 35 53.8 18.7   704 – Lincoln Laboratory ETS, New Mexico MPS 12816
2000 04 04.42678 14 04 36.60 -03 35 53.2 18.8   704 – Lincoln Laboratory ETS, New Mexico MPS 12816
2000 04 04.44126 14 04 35.80 -03 35 53.2 18.6   704 – Lincoln Laboratory ETS, New Mexico MPS 12816
2000 04 07.40130 14 01 54.12 -03 35 01.0 18.5 R 699 – Lowell Observatory-LONEOS MPS 12816
2000 04 07.41708 14 01 53.31 -03 34 59.8   699 – Lowell Observatory-LONEOS MPS 12816
2000 04 07.43290 14 01 52.31 -03 35 00.7   699 – Lowell Observatory-LONEOS MPS 12816
2000 04 07.44871 14 01 51.50 -03 34 59.4   699 – Lowell Observatory-LONEOS MPS 12816
2000 04 08.37568 14 00 59.12 -03 34 47.6 18.7   704 – Lincoln Laboratory ETS, New Mexico MPS 12816
2000 04 08.39085 14 00 58.33 -03 34 46.5 19.2   704 – Lincoln Laboratory ETS, New Mexico MPS 12816
2000 04 08.40891 14 00 57.24 -03 34 47.4 19.2   704 – Lincoln Laboratory ETS, New Mexico MPS 12816
2000 04 08.42685 14 00 56.24 -03 34 46.4 18.9   704 – Lincoln Laboratory ETS, New Mexico MPS 12816
2000 04 08.44362 14 00 55.17 -03 34 45.9 19.0   704 – Lincoln Laboratory ETS, New Mexico MPS 12816
2000 04 09.25793 14 00 09.09 -03 34 36.4 18.3 R 699 – Lowell Observatory-LONEOS MPS 12816
2000 04 09.27695 14 00 07.86 -03 34 35.9   699 – Lowell Observatory-LONEOS MPS 12816
2000 04 09.29587 14 00 06.68 -03 34 37.1   699 – Lowell Observatory-LONEOS MPS 12816
2000 04 09.31473 14 00 05.56 -03 34 36.2   699 – Lowell Observatory-LONEOS MPS 12816
2000 04 27.22471 13 41 57.28 -03 41 54.0 18.5 R 699 – Lowell Observatory-LONEOS MPS 14370
2000 04 27.24367 13 41 56.12 -03 41 54.9   699 – Lowell Observatory-LONEOS MPS 14370
2000 04 27.26267 13 41 54.93 -03 41 56.5   699 – Lowell Observatory-LONEOS MPS 14370
2000 04 27.28163 13 41 53.76 -03 41 57.7   699 – Lowell Observatory-LONEOS MPS 14370
2000 05 06.23054 13 33 23.47 -03 57 01.4 18.9   704 – Lincoln Laboratory ETS, New Mexico MPS 14370
2000 05 06.24273 13 33 22.93 -03 57 05.4 18.8   704 – Lincoln Laboratory ETS, New Mexico MPS 14370
2000 05 06.26706 13 33 21.65 -03 57 08.4 18.5   704 – Lincoln Laboratory ETS, New Mexico MPS 14370
2000 05 23.19871 13 21 33.57 -04 53 06.8 18.9 R 699 – Lowell Observatory-LONEOS MPS 15753
2000 05 23.20896 13 21 33.24 -04 53 09.5   699 – Lowell Observatory-LONEOS MPS 15753
2000 05 23.21922 13 21 33.02 -04 53 12.9   699 – Lowell Observatory-LONEOS MPS 15753
2000 05 23.22946 13 21 32.63 -04 53 13.8   699 – Lowell Observatory-LONEOS MPS 15753
2001 08 23.37196 23 49 34.47 -23 11 40.5 20.5   608 – Haleakala-AMOS MPS 178214
2001 08 23.38269 23 49 33.99 -23 11 44.1 20.4   608 – Haleakala-AMOS MPS 178214
2001 08 23.39329 23 49 33.42 -23 11 46.8 20.6   608 – Haleakala-AMOS MPS 178214
2004 03 14.27822 11 17 46.48 +25 06 18.6 19.1   704 – Lincoln Laboratory ETS, New Mexico MPS 102035
2004 03 14.29971 11 17 45.15 +25 06 19.6 19.9   704 – Lincoln Laboratory ETS, New Mexico MPS 102035
2004 03 14.31042 11 17 44.54 +25 06 21.9 19.7   704 – Lincoln Laboratory ETS, New Mexico MPS 102035
2004 03 18.20933 11 13 53.81 +25 11 20.3 20.1 V 703 – Catalina Sky Survey MPS 102035
2004 03 18.21855 11 13 53.33 +25 11 20.8 19.5   644 – Palomar Mountain/NEAT MPS 106097
2004 03 18.22076 11 13 53.19 +25 11 21.1 19.7 V 703 – Catalina Sky Survey MPS 102035
2004 03 18.23218 11 13 52.49 +25 11 22.3 20.2 V 703 – Catalina Sky Survey MPS 102035
2004 03 18.23948 11 13 52.06 +25 11 21.6 19.4   644 – Palomar Mountain/NEAT MPS 106098
2004 03 18.24363 11 13 51.88 +25 11 21.5 19.7 V 703 – Catalina Sky Survey MPS 102035
2004 03 18.26117 11 13 50.77 +25 11 22.9 19.1   644 – Palomar Mountain/NEAT MPS 106098
2006 09 30.42631 03 14 30.30 +14 43 15.5 19.7 V G96 – Mt. Lemmon Survey MPS 182433
2006 09 30.43367 03 14 30.04 +14 43 15.8 19.8 V G96 – Mt. Lemmon Survey MPS 182433
2006 09 30.44103 03 14 29.83 +14 43 16.5 19.7 V G96 – Mt. Lemmon Survey MPS 182433
2006 09 30.44830 03 14 29.61 +14 43 17.2 19.6 V G96 – Mt. Lemmon Survey MPS 182433
2006 09 30.48596 03 14 28.50 +14 43 20.1 19.7 V G96 – Mt. Lemmon Survey MPS 182433
2006 09 30.48998 03 14 28.39 +14 43 20.6 19.6 V G96 – Mt. Lemmon Survey MPS 182433
2006 09 30.49398 03 14 28.24 +14 43 20.7 19.6 V G96 – Mt. Lemmon Survey MPS 182433
2006 09 30.49799 03 14 28.14 +14 43 21.1 19.8 V G96 – Mt. Lemmon Survey MPS 182433
2006 10 11.36045 03 07 52.20 +14 53 51.5   691 – Steward Observatory, Kitt Peak-Spacewatch MPS 182403
2006 10 11.37785 03 07 51.43 +14 53 52.0   691 – Steward Observatory, Kitt Peak-Spacewatch MPS 182403
2006 10 11.39525 03 07 50.61 +14 53 52.7   691 – Steward Observatory, Kitt Peak-Spacewatch MPS 182403
2006 10 15.33529 03 04 46.85 +14 56 01.9   691 – Steward Observatory, Kitt Peak-Spacewatch MPS 182717
2006 10 15.35270 03 04 45.96 +14 56 02.3   691 – Steward Observatory, Kitt Peak-Spacewatch MPS 182717
2006 10 15.37066 03 04 45.09 +14 56 02.4   691 – Steward Observatory, Kitt Peak-Spacewatch MPS 182717
2006 10 19.32529 03 01 22.10 +14 57 21.9 20.0 V 691 – Steward Observatory, Kitt Peak-Spacewatch MPS 182717
2006 10 19.34274 03 01 21.16 +14 57 22.1 20.2 V 691 – Steward Observatory, Kitt Peak-Spacewatch MPS 182717
2006 10 19.36018 03 01 20.20 +14 57 22.4 20.2 V 691 – Steward Observatory, Kitt Peak-Spacewatch MPS 182717
2006 10 23.31714 02 57 41.40 +14 57 56.7 19.9 V 691 – Steward Observatory, Kitt Peak-Spacewatch MPS 183878
2006 10 23.33458 02 57 40.39 +14 57 56.6 19.9 V 691 – Steward Observatory, Kitt Peak-Spacewatch MPS 183878
2006 10 23.35496 02 57 39.19 +14 57 56.9 19.8 V 691 – Steward Observatory, Kitt Peak-Spacewatch MPS 183878
2006 10 31.30935 02 49 46.02 +14 57 15.7   691 – Steward Observatory, Kitt Peak-Spacewatch MPS 185219
2006 10 31.32673 02 49 44.94 +14 57 15.6   691 – Steward Observatory, Kitt Peak-Spacewatch MPS 185219
2006 10 31.34411 02 49 43.83 +14 57 15.4   691 – Steward Observatory, Kitt Peak-Spacewatch MPS 185219
2006 11 11.28611 02 38 29.47 +14 54 10.8 19.4 V 703 – Catalina Sky Survey MPS 186747
2006 11 11.29376 02 38 28.96 +14 54 10.5 19.0 V G96 – Mt. Lemmon Survey MPS 186747
2006 11 11.29718 02 38 28.75 +14 54 10.3 19.0 V 703 – Catalina Sky Survey MPS 186747
2006 11 11.29837 02 38 28.68 +14 54 10.3 19.2 V G96 – Mt. Lemmon Survey MPS 186747
2006 11 11.30316 02 38 28.39 +14 54 10.2 19.3 V G96 – Mt. Lemmon Survey MPS 186747
2006 11 11.30787 02 38 28.10 +14 54 10.2 19.1 V G96 – Mt. Lemmon Survey MPS 186747
2006 11 11.30825 02 38 28.03 +14 54 10.0 19.4 V 703 – Catalina Sky Survey MPS 186747
2006 11 11.31929 02 38 27.42 +14 54 10.7 19.1 V 703 – Catalina Sky Survey MPS 186747
2006 11 17.30696 02 32 33.18 +14 52 35.4 19.4 V 703 – Catalina Sky Survey MPS 188327
2006 11 17.31397 02 32 32.74 +14 52 33.6 19.0 V 703 – Catalina Sky Survey MPS 188327
2006 11 17.32097 02 32 32.24 +14 52 33.5 19.0 V 703 – Catalina Sky Survey MPS 188327
2006 11 17.32802 02 32 31.84 +14 52 34.0 18.6 V 703 – Catalina Sky Survey MPS 188327
2006 11 21.17302 02 28 58.29 +14 52 00.6 19.6 V G96 – Mt. Lemmon Survey MPS 188327
2006 11 21.18190 02 28 57.79 +14 52 00.6 19.6 V G96 – Mt. Lemmon Survey MPS 188327
2006 11 21.18885 02 28 57.41 +14 52 01.9 19.7   704 – Lincoln Laboratory ETS, New Mexico MPS 188327
2006 11 21.19091 02 28 57.28 +14 52 00.4 19.5 V G96 – Mt. Lemmon Survey MPS 188327
2006 11 21.19990 02 28 56.78 +14 52 00.4 19.6 V G96 – Mt. Lemmon Survey MPS 188327
2006 11 21.20109 02 28 56.63 +14 52 01.2 19.9   704 – Lincoln Laboratory ETS, New Mexico MPS 188327
2006 11 21.23793 02 28 54.64 +14 52 01.2 20.1   704 – Lincoln Laboratory ETS, New Mexico MPS 188327
2006 11 27.16816 02 23 54.06 +14 52 21.0 19.7 V G96 – Mt. Lemmon Survey MPS 190271
2006 11 27.17652 02 23 53.66 +14 52 21.1 19.7 V G96 – Mt. Lemmon Survey MPS 190271
2006 11 27.18493 02 23 53.23 +14 52 21.0 19.6 V G96 – Mt. Lemmon Survey MPS 190271
2006 11 27.20302 02 23 52.36 +14 52 21.6 19.8 V G96 – Mt. Lemmon Survey MPS 190271
2006 11 27.21875 02 23 51.50 +14 52 21.4 19.3 V 703 – Catalina Sky Survey MPS 190271
2006 11 27.22884 02 23 51.00 +14 52 21.6 19.8 V 703 – Catalina Sky Survey MPS 190271
